Regional Weather Roundup
Issued by NWS Bismarck, ND

Home | Current Version | Previous Version | Text Only | Print | Product List | Glossary On
Versions: 1 2 3 4 5 6 7 8 9 10 11 12 13 14 15 16 17 18 19 20 21 22 23 24 25 26 27 28 29 30 31 32 33 34 35 36 37 38 39 40 41 42 43 44 45 46 47 48 49 50
814
ASUS43 KBIS 210910
RWRBIS

NWR BROADCAST TEXT
NATIONAL WEATHER SERVICE BISMARCK ND
300 AM CST TUE NOV 21 2017

NOTE: "FAIR" INDICATES FEW OR NO CLOUDS BELOW 12,000 FEET WITH NO
SIGNIFICANT WEATHER AND/OR OBSTRUCTIONS TO VISIBILITY.


CITY           SKY/WX    TMP DP  RH WIND       PRES   REMARKS
WILLISTON      CLOUDY     5  -2  72 W8        30.21R WCI  -8
MINOT          CLEAR      9   2  73 W21G30    30.07R WCI -11
MINOT AFB      CLEAR      9   2  73 NW24G30   30.05R WCI -12
BISMARCK       CLOUDY    19   7  59 NW20G28   30.07R WCI   3
DICKINSON      CLOUDY     8   0  69 NW18      30.07R WCI -11
GARRISON         N/A      8   3  80 NW23      30.07R WCI -13
HETTINGER ARPT CLOUDY    14  -2  49 NW26G33   30.07R WCI  -6
JAMESTOWN      CLOUDY    16   8  71 NW33G43   29.91R WCI  -5
CARRINGTON     FAIR      14   9  79 NW30G43   29.96R WCI  -7
HAZEN          FAIR      12   7  79 NW17G30   30.12R WCI  -5
LINTON           N/A     12   1  62 NW21G28   30.03R WCI  -6
MANDAN         FAIR      12   5  73 NW22G33   30.04R WCI  -7
OAKES            N/A     18   7  62 NW31G37   29.92R WCI  -2
RUGBY            N/A     10   5  79 NW24      29.99R WCI -10
STANLEY        FAIR       5   1  85 NW18G26   30.11R WCI -15
TIOGA          FAIR       3   0  85 NW23G31   30.12R WCI -19
WATFORD CITY   FAIR       5  -2  72 W9G16     30.18R WCI  -9
$$

CITY           SKY/WX    TMP DP  RH WIND       PRES   REMARKS
GRAND FORKS    FLURRIES  18  12  77 NW28G40   29.86R WCI  -1
GRAND FORKS AF FLURRIES  17  11  76 N21G29    29.87R WCI   1
DEVILS LAKE    CLEAR     14   8  77 NW24      29.92R WCI  -5
FARGO          CLOUDY    22  10  60 NW28G45   29.84R WCI   4
CANDO          FAIR      14   7  73 NW24G33   29.96R WCI  -5
CAVALIER       FLURRIES  14   9  79 NW30G40   29.87R WCI  -7
GRAFTON        CLOUDY    16  10  79 N26G33    29.89R WCI  -3
GWINNER          N/A     19   9  63 NW24G31   29.89R WCI   2
LANGDON        FLURRIES  14  10  85 N29G38    29.85R WCI  -7
ROLLA          PTSUNNY   10   5  79 NW28G33   29.94R WCI -11
WALHALLA       FAIR      14  10  85 NW26G38   29.90R WCI  -6
$$

CITY           SKY/WX    TMP DP  RH WIND       PRES   REMARKS
ABERDEEN       CLOUDY    17   6  62 NW23G30   29.97R WCI  -1
MOBRIDGE       PTCLDY    18   5  57 NW25G38   30.01R WCI   0
BUFFALO          N/A     20  11  68 N20       29.99R WCI   4
RAPID CITY     FLURRIES  28  24  85 N21G30    30.05R WCI  15
GLASGOW        CLOUDY     5  -2  72 NW12      30.25R WCI -11
SIDNEY         CLOUDY     6  -1  73 NW14      30.24R WCI -11
WOLF POINT     CLOUDY     6  -3  66 NW7       30.28R WCI  -6
GLENDIVE       CLOUDY    10   0  63 NW15      30.20R WCI  -7
MILES CITY     CLOUDY    23  14  68 N15       30.19R WCI  10
BAKER          CLOUDY    15   5  64 N15       30.13R WCI   0
$$

CITY           SKY/WX    TMP DP  RH WIND       PRES   REMARKS
BILLINGS       CLOUDY    27  25  92 NE8       30.17R WCI  19
GREAT FALLS    CLOUDY    21  18  88 NE8       30.20R WCI  11
REGINA         FLURRIES   3  -4  72 NW21      30.19R WCI -18
ESTEVAN        MOCLDY     1  -4  78 NW23G29   30.14R WCI -21
$$





USA.gov is the U.S. government's official web portal to all federal, state and local government web resources and services.